Probability
0 1 3 5 5 4 5 6 11 22 38 47 38 24 15 11 6 2 0 0 0 0 0 0 0 0 0 0 0 0 0 0 0 0 0 0 0 0 0 0 0 0 0
1 2 5 8 8 8 10 17 29 44 59 66 56 36 19 10 5 2 0 0 0 0 0 0 0 0 0 0 0 0 0 0 0 0 0 0 0 0 0 0 0 0 0
2 6 12 17 17 18 26 41 59 74 83 86 77 54 27 10 4 1 0 0 0 0 0 0 0 0 0 0 0 0 0 0 0 0 0 0 0 0 0 0 0 0 0
8 16 26 32 35 39 48 62 77 85 86 83 74 56 30 11 3 0 0 0 0 0 0 0 0 0 0 0 0 0 0 0 0 0 0 0 0 0 0 0 0 0 0
20 33 47 53 58 62 64 68 72 68 62 54 46 36 22 9 3 0 0 0 0 0 0 0 0 0 0 0 0 0 0 0 0 0 0 0 0 0 0 0 0 0 0
33 48 63 68 71 69 61 56 50 38 28 23 17 14 10 4 1 0 0 0 0 0 0 0 0 0 0 0 0 0 0 0 0 0 0 0 0 0 0 0 0 0 0
34 48 62 65 67 61 48 36 27 16 9 6 4 3 3 1 0 0 0 0 0 0 0 0 0 0 0 0 0 0 0 0 0 0 0 0 0 0 0 0 0 0 0
24 35 45 48 49 45 33 21 12 6 3 1 1 0 0 0 0 0 0 0 0 0 0 0 0 0 0 0 0 0 0 0 0 0 0 0 0 0 0 0 0 0 0
16 21 27 29 28 24 16 10 5 2 0 0 0 0 0 0 0 0 0 0 0 0 0 0 0 0 0 0 0 0 0 0 0 0 0 0 0 0 0 0 0 0 0
9 10 12 13 11 8 4 2 1 0 0 0 0 0 0 0 0 0 0 0 0 0 0 0 0 0 0 0 0 0 0 0 0 0 0 0 0 0 0 0 0 0 0
3 3 4 4 3 2 0 0 0 0 0 0 0 0 0 0 0 0 0 0 0 0 0 0 0 0 0 0 0 0 0 0 0 0 0 0 0 0 0 0 0 0 0
0 0 0 0 0 0 0 0 0 0 0 0 0 0 0 0 0 0 0 0 0 0 0 0 0 0 0 0 0 0 0 0 0 0 0 0 0 0 0 0 0 0 0
0 0 0 0 0 0 0 0 1 2 2 1 0 0 0 0 0 0 0 0 0 0 0 0 0 0 0 0 0 0 0 0 0 0 0 0 0 0 0 0 0 0 0
0 0 0 0 0 0 0 0 2 5 6 4 2 0 0 0 0 0 0 0 0 0 0 0 0 0 0 0 0 0 0 0 0 0 0 0 0 0 0 0 0 0 0
0 0 0 0 0 0 0 0 1 6 9 8 5 2 1 1 0 0 0 0 0 0 0 0 0 0 0 0 0 0 0 0 0 0 0 0 0 0 0 0 0 0 0
0 0 0 0 0 0 0 0 1 4 7 8 6 3 2 1 0 0 0 0 0 0 0 0 0 0 0 0 0 0 0 0 0 0 0 0 0 0 0 0 0 0 0
0 0 0 0 0 0 0 0 0 1 4 5 4 2 1 1 0 0 0 0 0 0 0 0 0 0 0 0 0 0 0 0 0 0 0 0 0 0 0 0 0 0 0
0 0 0 0 0 0 0 0 0 0 1 1 1 1 0 0 0 0 0 0 0 0 0 0 0 0 0 0 0 0 0 0 0 0 0 0 0 0 0 0 0 0 0
0 0 0 0 0 0 0 0 0 0 0 0 0 0 0 0 0 0 0 0 0 0 0 0 0 0 0 0 0 1 0 0 0 0 0 0 0 0 0 0 0 0 0
0 0 0 0 0 0 0 0 0 0 0 0 0 0 0 0 0 0 0 0 0 0 0 0 0 0 0 0 0 0 0 0 0 0 0 0 0 0 0 0 0 0 0
0 0 0 0 0 0 0 0 0 0 0 0 0 0 0 0 0 0 0 0 0 0 0 0 0 0 0 0 0 0 0 0 0 0 0 0 0 0 0 0 0 0 0
0 0 0 0 0 0 0 0 0 0 0 0 0 0 0 0 0 0 0 0 0 0 0 0 0 0 0 0 0 0 0 0 0 0 0 0 0 0 0 0 0 0 0
0 0 0 0 0 0 0 0 0 0 0 0 0 0 0 0 0 0 0 0 0 0 0 0 0 0 0 0 0 0 0 0 0 0 0 0 0 0 0 0 0 0 0
0 0 0 0 0 0 0 0 0 0 0 0 0 0 0 0 0 0 0 0 0 0 0 0 0 0 0 0 0 0 0 0 0 0 0 0 0 0 0 0 0 0 0
0 0 0 0 0 0 0 0 0 0 0 0 0 0 0 0 0 0 0 0 0 0 0 0 0 0 0 0 0 0 0 0 0 0 0 0 0 0 0 0 0 0 0
0 0 0 0 0 0 0 0 0 0 0 0 0 0 0 0 0 0 0 0 0 0 0 0 0 0 0 0 0 0 0 0 0 0 0 0 0 0 0 0 0 0 0
Wind_Speed
9 7 12 15 14 13 12 12 10 10 8 6 5 5 5 4 4 5 6 6 5 4 4 4 6 6 6 7 7 4 4 3 3 4 3 3 2 2 3 3 3 3 3
6 5 9 12 13 12 11 10 9 9 9 7 5 3 3 3 3 4 5 6 5 5 5 5 5 6 5 6 6 5 4 2 2 4 3 1 2 2 1 2 4 4 3
10 9 9 9 11 10 10 9 8 8 8 8 5 4 3 2 2 3 4 6 5 5 5 6 5 5 5 6 6 7 7 5 2 2 4 4 4 2 1 2 2 4 3
11 11 11 11 12 10 8 9 9 9 8 8 7 7 5 4 5 4 4 5 5 5 6 6 6 6 5 6 7 6 5 7 4 2 2 2 4 4 1 2 2 3 3
9 12 12 12 12 11 9 8 8 8 7 7 7 6 4 3 3 2 4 4 4 5 6 6 6 6 5 6 6 5 5 5 5 5 3 2 1 2 3 2 2 2 2
6 9 9 10 11 11 9 7 7 6 6 7 6 6 6 4 4 3 3 3 2 3 5 6 6 5 5 6 6 6 7 6 6 5 4 4 4 3 3 2 2 3 3
4 9 10 10 10 11 10 7 7 6 5 6 5 4 5 4 4 4 4 3 2 2 4 4 5 4 5 6 6 6 6 7 7 6 5 4 4 4 3 3 2 2 2
11 5 5 7 8 10 9 8 7 6 5 4 3 3 4 3 2 3 3 3 2 2 3 4 4 5 5 6 6 5 6 6 7 7 6 4 5 4 4 4 3 2 2
12 10 6 3 5 8 7 8 7 5 4 3 2 3 4 4 4 3 3 2 2 2 3 3 3 3 4 5 5 5 6 6 7 7 7 6 5 5 4 4 3 4 4
12 11 9 6 2 2 4 6 6 5 4 4 3 3 4 5 4 4 3 3 2 2 3 3 3 2 2 2 3 3 4 6 6 5 7 7 5 5 5 4 4 3 4
9 8 6 6 6 3 3 5 6 5 4 4 3 4 4 4 4 4 3 3 3 3 3 3 3 2 2 1 2 2 3 4 5 5 6 7 7 6 5 5 4 3 3
4 4 5 8 8 5 4 4 5 5 5 5 5 5 4 4 4 3 3 4 4 3 3 3 3 3 2 2 2 2 2 3 3 4 4 5 5 7 6 5 5 3 3
6 6 7 9 10 7 6 6 6 6 5 4 4 3 3 4 4 4 4 4 4 4 4 4 4 4 3 3 2 2 2 2 2 3 3 4 5 5 5 6 6 4 4
5 6 7 8 8 7 5 5 4 4 4 4 4 3 3 4 5 4 4 5 5 5 5 5 5 5 4 4 3 3 2 2 2 2 2 3 4 5 6 5 6 5 5
9 5 4 4 4 3 2 1 1 3 4 5 3 2 4 4 4 4 4 5 5 6 5 4 4 4 4 5 5 4 4 3 3 2 2 3 4 6 6 5 5 5 4
13 12 10 8 8 7 6 5 6 5 5 4 2 2 2 2 2 2 3 3 4 4 4 5 5 5 5 8 10 7 5 4 4 4 3 4 5 8 10 10 10 9 6
12 12 11 10 10 9 10 10 9 9 9 8 6 5 5 5 4 3 1 2 3 3 4 5 5 6 7 10 11 12 6 5 5 5 4 5 6 8 6 9 11 11 12
10 9 8 8 8 9 9 9 9 9 8 7 6 6 5 5 5 5 4 3 1 2 3 4 5 5 7 11 12 12 7 4 4 5 5 6 6 6 7 6 6 7 8
5 5 6 6 7 7 6 7 8 7 7 6 5 5 4 5 5 5 4 3 2 1 2 3 4 5 6 9 11 10 4 3 3 4 4 6 6 9 11 7 7 6 6
4 5 5 6 6 5 6 7 6 6 5 4 4 4 4 4 4 4 3 3 2 2 2 1 2 3 4 6 8 8 3 3 2 1 2 4 6 6 7 7 7 7 6
3 4 4 4 3 3 5 6 5 4 3 3 3 4 4 4 4 4 3 3 3 3 2 2 2 1 1 2 5 7 4 3 2 1 1 1 2 3 4 6 5 7 5
2 3 3 3 3 3 4 4 4 3 2 3 4 4 5 5 5 5 5 5 5 4 4 3 4 3 3 2 2 6 5 4 3 2 1 1 2 1 2 2 2 3 3
0 1 2 2 3 3 2 3 4 3 2 4 4 3 4 5 5 6 7 5 6 5 4 4 3 3 3 4 5 5 4 3 2 1 1 1 1 1 1 1 2 3 2
1 0 2 2 2 2 2 2 3 3 4 4 2 2 3 4 5 5 5 5 6 5 5 5 4 3 3 3 3 2 2 2 1 1 2 4 3 1 1 1 1 1 1
3 1 1 1 1 1 1 2 3 4 4 3 1 2 2 2 3 4 5 5 5 4 3 3 3 3 3 4 3 1 1 0 1 2 2 1 1 1 1 1 0 0 1
4 3 2 1 1 2 2 1 1 3 3 2 1 1 1 0 1 1 2 6 5 8 9 7 4 3 5 6 7 6 4 2 2 3 2 1 1 0 0 0 1 1 0
Wind_Direction
238 204 183 176 174 176 177 178 178 173 162 157 157 159 175 179 183 202 204 202 194 190 187 201 195 183 181 178 160 144 139 133 124 97 68 25 49 115 155 162 163 178 175
243 206 177 170 170 172 172 170 170 163 163 161 158 158 157 175 190 202 208 209 203 189 185 190 199 190 180 172 161 147 135 140 141 132 114 65 358 350 111 169 174 182 176
213 196 172 159 151 152 161 162 155 147 144 141 131 117 100 93 148 213 220 218 207 190 182 182 190 194 180 181 176 161 148 154 166 148 144 153 196 243 303 228 196 181 181
195 178 162 149 140 137 139 137 132 128 132 137 142 149 161 175 194 196 209 214 201 191 184 183 185 185 185 186 189 172 157 150 162 168 164 155 154 149 195 293 265 215 194
178 163 155 146 135 130 123 123 121 124 131 136 144 145 153 174 176 179 201 214 206 193 187 186 184 183 184 189 189 177 167 163 165 168 162 155 141 128 140 206 251 263 235
138 130 124 124 119 115 108 110 121 127 134 137 143 151 160 165 166 186 200 210 205 191 187 187 190 188 184 187 189 185 181 187 178 175 167 163 161 163 151 172 204 220 240
70 122 128 130 128 123 126 144 146 147 146 143 151 164 172 176 190 199 200 194 191 191 193 185 191 192 192 191 185 188 196 194 189 187 188 182 175 149 152 160 185 207 238
18 38 110 128 132 131 145 153 156 154 152 149 168 188 179 169 188 190 178 183 189 198 182 178 188 194 193 193 190 196 202 200 201 201 193 186 184 164 161 163 161 173 220
18 22 21 67 125 139 162 158 156 154 159 162 168 179 167 159 163 161 156 160 168 165 147 150 163 182 190 193 191 205 210 205 206 207 201 197 190 175 169 166 172 168 187
12 19 12 2 360 154 164 156 158 167 170 163 161 156 151 151 150 138 140 144 149 138 134 132 135 140 155 173 187 204 212 211 215 212 207 204 192 180 169 166 172 183 181
7 8 357 314 285 256 203 171 175 174 170 160 148 143 147 147 144 142 152 156 157 158 158 157 151 146 143 140 154 188 194 205 214 214 210 211 193 181 175 169 161 171 172
342 312 276 261 267 269 246 211 192 183 179 164 150 157 158 155 156 166 178 172 173 179 177 171 164 166 168 164 164 187 194 199 207 209 203 205 195 187 178 173 170 171 174
285 261 261 263 265 265 248 226 207 192 179 159 150 156 171 179 188 197 202 196 191 195 189 180 184 185 181 178 178 178 184 195 197 196 196 192 181 185 179 175 173 171 175
301 274 267 271 274 275 263 239 224 188 161 143 143 176 209 210 213 211 212 211 203 200 200 198 198 194 188 185 180 170 164 163 169 181 185 184 184 182 174 173 170 166 169
12 352 316 313 320 324 328 285 198 144 140 133 145 211 255 252 238 224 219 216 211 212 203 201 207 204 194 197 188 181 178 176 181 195 202 204 200 192 181 176 171 168 171
20 24 31 36 36 34 35 39 51 71 86 95 84 31 344 327 293 259 223 213 219 221 204 205 206 210 217 211 198 187 185 188 196 211 222 228 224 216 210 205 191 183 181
23 28 34 41 44 47 52 56 56 63 69 66 56 43 38 31 9 359 345 259 237 227 216 213 202 211 225 220 206 199 187 196 205 213 219 231 230 223 219 222 217 212 211
22 24 30 44 48 54 56 61 63 65 66 62 54 40 36 33 21 22 14 345 294 246 233 225 214 213 226 222 213 204 193 199 211 220 222 227 239 223 211 213 219 225 225
27 32 37 49 53 55 60 66 62 62 63 57 50 40 38 34 21 11 353 336 327 300 257 241 219 217 233 227 216 194 178 196 218 236 234 224 230 237 216 198 212 229 239
36 42 42 48 50 45 58 62 54 52 50 43 37 31 31 28 13 353 336 325 320 306 297 285 237 220 232 233 215 180 159 180 207 254 275 237 220 227 205 193 200 218 232
65 67 58 51 44 48 61 56 41 27 13 29 36 26 17 11 5 351 343 340 348 1 14 25 20 6 276 253 202 162 145 161 164 175 272 292 221 208 194 186 196 217 209
74 77 61 30 12 38 58 42 11 331 358 35 41 29 20 16 14 10 6 7 12 24 26 37 36 29 21 48 141 144 141 149 148 173 217 252 234 200 169 171 205 198 161
318 73 79 28 4 14 49 26 336 338 46 56 52 44 36 26 22 25 19 15 18 25 25 32 36 24 23 34 67 106 121 132 133 181 209 191 148 114 106 144 126 113 117
308 66 89 42 1 355 19 11 357 41 88 86 70 50 46 35 30 29 26 28 21 18 23 28 28 29 30 27 28 39 59 79 81 61 76 87 79 49 11 59 74 97 137
303 252 139 91 300 280 342 10 43 75 87 91 71 41 48 57 49 45 33 27 25 16 20 19 21 29 27 4 10 52 52 82 135 111 77 51 30 16 4 6 18 104 127
323 284 249 205 207 215 250 293 77 107 113 97 59 356 356 41 98 86 52 35 32 30 38 41 40 31 31 29 43 47 47 51 123 111 86 65 55 43 7 16 27 48 155